"Period start","avg(HW err(1)/warn(2) (#))","avg(Visibility (m))","avg(Weather code (#))","avg(Precip intensity (mm/h))","min(HW err(1)/warn(2) (#))","max(HW err(1)/warn(2) (#))","std(HW err(1)/warn(2) (#))","med(HW err(1)/warn(2) (#))","min(Visibility (m))","max(Visibility (m))","std(Visibility (m))","med(Visibility (m))","min(Weather code (#))","max(Weather code (#))","std(Weather code (#))","med(Weather code (#))","min(Precip intensity (mm/h))","max(Precip intensity (mm/h))","std(Precip intensity (mm/h))","med(Precip intensity (mm/h))"
2014-05-29 00:00:00,2,4952,76,0.05,2,2,0,2,4525,6025,505,4774,71,77,2,77,0.00,0.20,0.06,0.05
2014-05-29 00:10:00,2,7174,77,0.03,2,2,0,2,4477,9291,1674,7432,77,77,0,77,0.00,0.10,0.03,0.00
2014-05-29 00:20:00,2,7090,77,0.04,2,2,0,2,4361,9296,1544,6640,77,77,0,77,0.00,0.10,0.03,0.05
2014-05-29 00:30:00,2,5144,77,0.11,2,2,0,2,3536,6358,751,5207,77,77,0,77,0.00,0.45,0.12,0.05
2014-05-29 00:40:00,2,4576,77,0.15,2,2,0,2,3986,5992,683,4188,77,77,0,77,0.05,0.30,0.08,0.15
2014-05-29 00:50:00,2,3552,75,0.41,2,2,0,2,2847,4755,538,3400,71,77,3,77,0.10,0.75,0.17,0.40
2014-05-29 01:00:00,2,3326,73,0.40,2,2,0,2,2723,3811,341,3312,71,77,3,71,0.10,1.45,0.37,0.30
2014-05-29 01:10:00,2,2938,71,0.37,2,2,0,2,2387,3649,424,2882,71,71,0,71,0.10,0.80,0.28,0.28
2014-05-29 01:20:00,2,2332,71,0.32,2,2,0,2,1934,3005,304,2312,71,71,0,71,0.15,0.60,0.15,0.25
2014-05-29 01:30:00,2,3125,73,0.10,2,2,0,2,2439,3939,494,2960,71,77,3,71,0.00,0.30,0.09,0.05
2014-05-29 01:40:00,2,4741,76,0.03,2,2,0,2,3040,5745,837,5016,71,77,2,77,0.00,0.05,0.03,0.03
2014-05-29 01:50:00,2,6348,76,0.02,2,2,0,2,4542,8033,1269,5761,71,77,2,77,0.00,0.05,0.02,0.00
2014-05-29 02:00:00,2,9815,51,0.02,2,2,0,2,5814,15115,3785,8284,41,77,15,41,0.00,0.05,0.02,0.00
2014-05-29 02:10:00,2,4595,76,0.42,2,2,0,2,2266,9794,2616,3498,71,77,2,77,0.00,1.05,0.35,0.33
2014-05-29 02:20:00,2,2076,71,1.85,2,2,0,2,1888,2229,92,2080,71,71,0,71,0.90,3.30,0.74,1.68
2014-05-29 02:30:00,2,1975,71,1.86,2,2,0,2,1741,2247,159,1988,71,71,0,71,1.00,3.45,0.70,1.62
2014-05-29 02:40:00,2,1796,71,2.59,2,2,0,2,1655,1968,92,1792,71,71,0,71,1.90,3.20,0.40,2.75
2014-05-29 02:50:00,2,1623,71,3.08,2,2,0,2,1410,1821,136,1620,71,71,0,71,2.30,4.25,0.61,3.15
2014-05-29 03:00:00,2,1574,71,2.91,2,2,0,2,1445,1687,78,1569,71,71,0,71,2.10,4.25,0.66,2.75
2014-05-29 03:10:00,2,1456,71,3.40,2,2,0,2,1264,1645,113,1466,71,71,0,71,2.50,4.00,0.53,3.60
2014-05-29 03:20:00,2,1367,71,3.16,2,2,0,2,1310,1433,37,1371,71,71,0,71,2.35,4.00,0.43,3.12
2014-05-29 03:30:00,2,1335,71,3.98,2,2,0,2,1195,1609,133,1314,71,71,0,71,2.25,7.30,1.57,3.75
2014-05-29 03:40:00,2,1390,71,3.69,2,2,0,2,1272,1643,113,1370,71,71,0,71,2.70,5.00,0.77,3.60
2014-05-29 03:50:00,2,1200,71,6.85,2,2,0,2,1079,1309,80,1198,71,71,0,71,4.90,10.80,1.71,6.58
2014-05-29 04:00:00,2,1105,71,8.23,2,2,0,2,953,1320,119,1066,71,71,0,71,5.95,9.50,1.18,8.65
2014-05-29 04:10:00,2,1355,71,5.92,2,2,0,2,1218,1515,100,1325,71,71,0,71,4.70,7.20,0.80,6.05
2014-05-29 04:20:00,2,1522,71,4.57,2,2,0,2,1300,1774,154,1521,71,71,0,71,3.20,6.80,1.08,4.28
2014-05-29 04:30:00,2,2303,71,1.71,2,2,0,2,1924,2827,315,2158,71,71,0,71,0.75,2.40,0.57,1.77
2014-05-29 04:40:00,2,2767,71,0.70,2,2,0,2,2423,3212,216,2746,71,71,0,71,0.50,0.90,0.15,0.68
2014-05-29 04:50:00,2,3096,71,0.65,2,2,0,2,2567,4445,524,3008,71,71,0,71,0.25,0.95,0.21,0.62
2014-05-29 05:00:00,2,3944,71,0.19,2,2,0,2,3496,4692,394,3772,71,71,0,71,0.05,0.55,0.14,0.15
2014-05-29 05:10:00,2,4830,74,0.04,2,2,0,2,3419,6956,1012,4956,71,77,3,74,0.00,0.15,0.06,0.00
2014-05-29 05:20:00,2,9381,77,0.00,2,2,0,2,7012,11480,1486,9055,77,77,0,77,0.00,0.00,0.00,0.00
2014-05-29 05:30:00,2,13959,5,0.00,2,2,0,2,12177,16368,1239,13631,0,10,5,5,0.00,0.00,0.00,0.00
2014-05-29 05:40:00,2,12930,0,0.00,2,2,0,2,11545,14471,927,12964,0,0,0,0,0.00,0.00,0.00,0.00
2014-05-29 05:50:00,2,12560,0,0.00,2,2,0,2,10782,14146,994,12294,0,0,0,0,0.00,0.00,0.00,0.00
2014-05-29 06:00:00,2,11290,0,0.00,2,2,0,2,10089,12139,540,11334,0,0,0,0,0.00,0.00,0.00,0.00
2014-05-29 06:10:00,2,8966,0,0.00,2,2,0,2,7676,10313,775,8864,0,0,0,0,0.00,0.00,0.00,0.00
2014-05-29 06:20:00,2,8620,10,0.00,2,2,0,2,7416,9806,680,8543,10,10,0,10,0.00,0.00,0.00,0.00
2014-05-29 06:30:00,2,6644,10,0.00,2,2,0,2,5701,7780,756,6664,10,10,0,10,0.00,0.00,0.00,0.00
2014-05-29 06:40:00,2,6218,10,0.00,2,2,0,2,5505,6897,404,6224,10,10,0,10,0.00,0.00,0.00,0.00
2014-05-29 06:50:00,2,5817,10,0.00,2,2,0,2,5244,6577,397,5696,10,10,0,10,0.00,0.00,0.00,0.00
2014-05-29 07:00:00,2,6081,10,0.00,2,2,0,2,5275,7337,672,5818,10,10,0,10,0.00,0.00,0.00,0.00
2014-05-29 07:10:00,2,9151,10,0.00,2,2,0,2,7030,11098,1247,9230,10,10,0,10,0.00,0.00,0.00,0.00
2014-05-29 07:20:00,2,10486,10,0.00,2,2,0,2,9452,12389,770,10368,10,10,0,10,0.00,0.00,0.00,0.00
2014-05-29 07:30:00,2,10574,10,0.00,2,2,0,2,8834,13547,1224,10504,10,10,0,10,0.00,0.00,0.00,0.00
2014-05-29 07:40:00,2,12431,7,0.00,2,2,0,2,11012,13366,708,12528,0,10,5,10,0.00,0.00,0.00,0.00
2014-05-29 07:50:00,2,14797,0,0.00,2,2,0,2,13630,17095,1046,14505,0,0,0,0,0.00,0.00,0.00,0.00
2014-05-29 08:00:00,2,15648,0,0.00,2,2,0,2,12839,17154,1141,15822,0,0,0,0,0.00,0.00,0.00,0.00
2014-05-29 08:10:00,2,20586,0,0.00,2,2,0,2,14001,28288,4104,20462,0,0,0,0,0.00,0.00,0.00,0.00
2014-05-29 08:20:00,2,26538,0,0.00,2,2,0,2,21728,34190,3682,26088,0,0,0,0,0.00,0.00,0.00,0.00
2014-05-29 08:30:00,2,28996,0,0.00,2,2,0,2,26644,31496,1584,28865,0,0,0,0,0.00,0.00,0.00,0.00
2014-05-29 08:40:00,2,31166,0,0.00,2,2,0,2,22798,41459,6022,30240,0,0,0,0,0.00,0.00,0.00,0.00
2014-05-29 08:50:00,2,32486,0,0.00,2,2,0,2,27421,39482,3452,31724,0,0,0,0,0.00,0.00,0.00,0.00
2014-05-29 09:00:00,2,28078,0,0.00,2,2,0,2,24096,35082,3228,27172,0,0,0,0,0.00,0.00,0.00,0.00
2014-05-29 09:10:00,2,31298,0,0.00,2,2,0,2,25886,41433,4740,29654,0,0,0,0,0.00,0.00,0.00,0.00
2014-05-29 09:20:00,2,31394,0,0.00,2,2,0,2,25838,36568,3717,32164,0,0,0,0,0.00,0.00,0.00,0.00
2014-05-29 09:30:00,2,33768,0,0.00,2,2,0,2,24983,43361,6085,31320,0,0,0,0,0.00,0.00,0.00,0.00
2014-05-29 09:40:00,2,34850,0,0.00,2,2,0,2,27028,40848,3549,34622,0,0,0,0,0.00,0.00,0.00,0.00
2014-05-29 09:50:00,2,34987,0,0.00,2,2,0,2,30883,39709,2808,34352,0,0,0,0,0.00,0.00,0.00,0.00
2014-05-29 10:00:00,2,33726,0,0.00,2,2,0,2,29633,37213,1873,34060,0,0,0,0,0.00,0.00,0.00,0.00
2014-05-29 10:10:00,2,33696,0,0.00,2,2,0,2,30216,37341,2043,33061,0,0,0,0,0.00,0.00,0.00,0.00
2014-05-29 10:20:00,2,32938,0,0.00,2,2,0,2,26510,35942,2946,34080,0,0,0,0,0.00,0.00,0.00,0.00
2014-05-29 10:30:00,2,32256,0,0.00,2,2,0,2,28816,34935,2150,31754,0,0,0,0,0.00,0.00,0.00,0.00
2014-05-29 10:40:00,2,32959,0,0.00,2,2,0,2,26786,38656,3073,33165,0,0,0,0,0.00,0.00,0.00,0.00
2014-05-29 10:50:00,2,36393,0,0.00,2,2,0,2,26976,43877,4933,36438,0,0,0,0,0.00,0.00,0.00,0.00
2014-05-29 11:00:00,2,38921,0,0.00,2,2,0,2,31851,44642,4062,40860,0,0,0,0,0.00,0.00,0.00,0.00
2014-05-29 11:10:00,2,45067,0,0.00,2,2,0,2,40658,50000,3204,46010,0,0,0,0,0.00,0.00,0.00,0.00
2014-05-29 11:20:00,2,36854,0,0.00,2,2,0,2,29947,45653,5178,35218,0,0,0,0,0.00,0.00,0.00,0.00
2014-05-29 11:30:00,2,45830,0,0.00,2,2,0,2,41459,48740,2324,46314,0,0,0,0,0.00,0.00,0.00,0.00
2014-05-29 11:40:00,2,48541,0,0.00,2,2,0,2,45069,50000,1873,49560,0,0,0,0,0.00,0.00,0.00,0.00
2014-05-29 11:50:00,2,42970,0,0.00,2,2,0,2,34253,47468,4338,44538,0,0,0,0,0.00,0.00,0.00,0.00
2014-05-29 12:00:00,2,48151,0,0.00,2,2,0,2,45112,50000,1817,48820,0,0,0,0,0.00,0.00,0.00,0.00
2014-05-29 12:10:00,2,46431,0,0.00,2,2,0,2,41008,50000,3303,47102,0,0,0,0,0.00,0.00,0.00,0.00
2014-05-29 12:20:00,2,47611,0,0.00,2,2,0,2,42945,50000,2766,49052,0,0,0,0,0.00,0.00,0.00,0.00
2014-05-29 12:30:00,2,46953,0,0.00,2,2,0,2,40504,50000,3641,48848,0,0,0,0,0.00,0.00,0.00,0.00
2014-05-29 12:40:00,2,47384,0,0.00,2,2,0,2,43112,50000,2550,48318,0,0,0,0,0.00,0.00,0.00,0.00
2014-05-29 12:50:00,2,46089,0,0.00,2,2,0,2,43416,50000,1848,45958,0,0,0,0,0.00,0.00,0.00,0.00
2014-05-29 13:00:00,2,46426,0,0.00,2,2,0,2,37289,50000,4201,48009,0,0,0,0,0.00,0.00,0.00,0.00
2014-05-29 13:10:00,2,48577,0,0.00,2,2,0,2,43616,50000,2129,50000,0,0,0,0,0.00,0.00,0.00,0.00
2014-05-29 13:20:00,2,46480,0,0.00,2,2,0,2,39870,50000,3664,47377,0,0,0,0,0.00,0.00,0.00,0.00
2014-05-29 13:30:00,2,45034,0,0.00,2,2,0,2,40331,48372,2985,45683,0,0,0,0,0.00,0.00,0.00,0.00
2014-05-29 13:40:00,2,47454,0,0.00,2,2,0,2,41246,50000,3476,49732,0,0,0,0,0.00,0.00,0.00,0.00
2014-05-29 13:50:00,2,47735,0,0.00,2,2,0,2,45128,50000,2047,47589,0,0,0,0,0.00,0.00,0.00,0.00
2014-05-29 14:00:00,2,45416,0,0.00,2,2,0,2,41713,49855,2424,44684,0,0,0,0,0.00,0.00,0.00,0.00
2014-05-29 14:10:00,2,48791,0,0.00,2,2,0,2,45582,50000,1426,49318,0,0,0,0,0.00,0.00,0.00,0.00
2014-05-29 14:20:00,2,47747,0,0.00,2,2,0,2,44592,50000,1942,48256,0,0,0,0,0.00,0.00,0.00,0.00
2014-05-29 14:30:00,2,50000,0,0.00,2,2,0,2,50000,50000,0,50000,0,0,0,0,0.00,0.00,0.00,0.00
2014-05-29 14:40:00,2,49864,0,0.00,2,2,0,2,48637,50000,409,50000,0,0,0,0,0.00,0.00,0.00,0.00
2014-05-29 14:50:00,2,47432,0,0.00,2,2,0,2,43646,50000,2421,48251,0,0,0,0,0.00,0.00,0.00,0.00
2014-05-29 15:00:00,2,49854,0,0.00,2,2,0,2,49026,50000,312,50000,0,0,0,0,0.00,0.00,0.00,0.00
2014-05-29 15:10:00,2,49002,0,0.00,2,2,0,2,44127,50000,1816,50000,0,0,0,0,0.00,0.00,0.00,0.00
2014-05-29 15:20:00,2,46877,0,0.00,2,2,0,2,39775,50000,3577,48172,0,0,0,0,0.00,0.00,0.00,0.00
2014-05-29 15:30:00,2,49802,0,0.00,2,2,0,2,48022,50000,593,50000,0,0,0,0,0.00,0.00,0.00,0.00
2014-05-29 15:40:00,2,49812,0,0.00,2,2,0,2,48116,50000,565,50000,0,0,0,0,0.00,0.00,0.00,0.00
2014-05-29 15:50:00,2,49169,0,0.00,2,2,0,2,46638,50000,1320,50000,0,0,0,0,0.00,0.00,0.00,0.00
2014-05-29 16:00:00,2,49928,0,0.00,2,2,0,2,49278,50000,217,50000,0,0,0,0,0.00,0.00,0.00,0.00
2014-05-29 16:10:00,2,48443,0,0.00,2,2,0,2,44242,50000,1686,48950,0,0,0,0,0.00,0.00,0.00,0.00
2014-05-29 16:20:00,2,49854,0,0.00,2,2,0,2,49015,50000,314,50000,0,0,0,0,0.00,0.00,0.00,0.00
2014-05-29 16:30:00,2,48249,0,0.00,2,2,0,2,41880,50000,2655,49412,0,0,0,0,0.00,0.00,0.00,0.00
2014-05-29 16:40:00,2,46885,0,0.00,2,2,0,2,40436,50000,3804,49624,0,0,0,0,0.00,0.00,0.00,0.00
2014-05-29 16:50:00,2,49635,0,0.00,2,2,0,2,47504,50000,746,50000,0,0,0,0,0.00,0.00,0.00,0.00
2014-05-29 17:00:00,2,48838,0,0.00,2,2,0,2,43157,50000,2089,50000,0,0,0,0,0.00,0.00,0.00,0.00
2014-05-29 17:10:00,2,48415,0,0.00,2,2,0,2,45588,50000,1686,49191,0,0,0,0,0.00,0.00,0.00,0.00
2014-05-29 17:20:00,2,48624,0,0.00,2,2,0,2,42832,50000,2310,50000,0,0,0,0,0.00,0.00,0.00,0.00
2014-05-29 17:30:00,2,49578,0,0.00,2,2,0,2,47527,50000,779,50000,0,0,0,0,0.00,0.00,0.00,0.00
2014-05-29 17:40:00,2,50000,0,0.00,2,2,0,2,50000,50000,0,50000,0,0,0,0,0.00,0.00,0.00,0.00
2014-05-29 17:50:00,2,49877,0,0.00,2,2,0,2,48769,50000,369,50000,0,0,0,0,0.00,0.00,0.00,0.00
2014-05-29 18:00:00,2,49381,0,0.00,2,2,0,2,46732,50000,1113,50000,0,0,0,0,0.00,0.00,0.00,0.00
2014-05-29 18:10:00,2,49872,0,0.00,2,2,0,2,48725,50000,382,50000,0,0,0,0,0.00,0.00,0.00,0.00
2014-05-29 18:20:00,2,49168,0,0.00,2,2,0,2,45753,50000,1665,50000,0,0,0,0,0.00,0.00,0.00,0.00
2014-05-29 18:30:00,2,49448,0,0.00,2,2,0,2,45407,50000,1370,50000,0,0,0,0,0.00,0.00,0.00,0.00
2014-05-29 18:40:00,2,48814,0,0.00,2,2,0,2,42833,50000,2316,50000,0,0,0,0,0.00,0.00,0.00,0.00
2014-05-29 18:50:00,2,49989,0,0.00,2,2,0,2,49892,50000,32,50000,0,0,0,0,0.00,0.00,0.00,0.00
2014-05-29 19:00:00,2,49821,0,0.00,2,2,0,2,48871,50000,373,50000,0,0,0,0,0.00,0.00,0.00,0.00
2014-05-29 19:10:00,2,48360,0,0.00,2,2,0,2,42495,50000,2591,49836,0,0,0,0,0.00,0.00,0.00,0.00
2014-05-29 19:20:00,2,48463,0,0.00,2,2,0,2,44373,50000,2041,50000,0,0,0,0,0.00,0.00,0.00,0.00
2014-05-29 19:30:00,2,45383,0,0.00,2,2,0,2,39571,50000,4310,45935,0,0,0,0,0.00,0.00,0.00,0.00
2014-05-29 19:40:00,2,42030,0,0.00,2,2,0,2,36850,50000,4029,40954,0,0,0,0,0.00,0.00,0.00,0.00
2014-05-29 19:50:00,2,47754,0,0.00,2,2,0,2,43501,50000,2037,48041,0,0,0,0,0.00,0.00,0.00,0.00
2014-05-29 20:00:00,2,43470,0,0.00,2,2,0,2,30811,50000,6697,45767,0,0,0,0,0.00,0.00,0.00,0.00
2014-05-29 20:10:00,2,37966,0,0.00,2,2,0,2,28859,47735,5051,37524,0,0,0,0,0.00,0.00,0.00,0.00
2014-05-29 20:20:00,2,39673,0,0.00,2,2,0,2,33670,43793,3436,39613,0,0,0,0,0.00,0.00,0.00,0.00
2014-05-29 20:30:00,2,44303,0,0.00,2,2,0,2,39780,49872,3722,43986,0,0,0,0,0.00,0.00,0.00,0.00
2014-05-29 20:40:00,2,38658,0,0.00,2,2,0,2,31493,47370,5227,38338,0,0,0,0,0.00,0.00,0.00,0.00
2014-05-29 20:50:00,2,42629,0,0.00,2,2,0,2,36193,49196,4292,42633,0,0,0,0,0.00,0.00,0.00,0.00
2014-05-29 21:00:00,2,38455,0,0.00,2,2,0,2,25586,45867,6490,39662,0,0,0,0,0.00,0.00,0.00,0.00
2014-05-29 21:10:00,2,31681,0,0.00,2,2,0,2,23809,38562,4989,33046,0,0,0,0,0.00,0.00,0.00,0.00
2014-05-29 21:20:00,2,18305,0,0.00,2,2,0,2,10569,34882,6976,15904,0,0,0,0,0.00,0.00,0.00,0.00
2014-05-29 21:30:00,2,9331,0,0.00,2,2,0,2,6961,12847,1548,9368,0,0,0,0,0.00,0.00,0.00,0.00
2014-05-29 21:40:00,2,7202,8,0.00,2,2,0,2,3846,14788,3383,5827,0,10,4,10,0.00,0.00,0.00,0.00
2014-05-29 21:50:00,2,4676,10,0.00,2,2,0,2,2171,8093,1634,4511,10,10,0,10,0.00,0.00,0.00,0.00
2014-05-29 22:00:00,2,8194,10,0.00,2,2,0,2,3449,13951,3592,8201,10,10,0,10,0.00,0.00,0.00,0.00
2014-05-29 22:10:00,2,14921,6,0.00,2,2,0,2,9908,21400,3486,14217,0,10,5,10,0.00,0.00,0.00,0.00
2014-05-29 22:20:00,2,15692,0,0.00,2,2,0,2,10554,24204,4122,14469,0,0,0,0,0.00,0.00,0.00,0.00
2014-05-29 22:30:00,2,17268,0,0.00,2,2,0,2,11326,21776,3026,17052,0,0,0,0,0.00,0.00,0.00,0.00
2014-05-29 22:40:00,2,14750,0,0.00,2,2,0,2,11373,18633,2094,14740,0,0,0,0,0.00,0.00,0.00,0.00
2014-05-29 22:50:00,2,15886,0,0.00,2,2,0,2,12649,19554,2320,16043,0,0,0,0,0.00,0.00,0.00,0.00
2014-05-29 23:00:00,2,22113,0,0.00,2,2,0,2,17784,28190,2738,22231,0,0,0,0,0.00,0.00,0.00,0.00
2014-05-29 23:10:00,2,19957,0,0.00,2,2,0,2,13153,24014,3541,20737,0,0,0,0,0.00,0.00,0.00,0.00
2014-05-29 23:20:00,2,16163,0,0.00,2,2,0,2,10780,24118,3405,15236,0,0,0,0,0.00,0.00,0.00,0.00
2014-05-29 23:30:00,2,9847,0,0.00,2,2,0,2,6808,12401,1650,9693,0,0,0,0,0.00,0.00,0.00,0.00
2014-05-29 23:40:00,2,10070,0,0.00,2,2,0,2,7265,13435,1697,9926,0,0,0,0,0.00,0.00,0.00,0.00
2014-05-29 23:50:00,2,8013,7,0.00,2,2,0,2,5418,11552,1855,7518,0,10,5,10,0.00,0.00,0.00,0.00
